Weather in Bereznik

Russia / Vologda Oblast     59°42′08″N   39°11′43″E
temp.,
°C
wind,
m/s
gust,
m/s
humid.,
%
clouds,
%
prec.,
mm/h
press.,
hPa
HPBL,
m
20 may, fri
fri2000:00−1nnw411935 0.0 1017362
03:00−2nnw39979 0.0 1018234
06:000nnw37915 0.0 1019299
09:00+5n456736 0.0 10201131
12:00+8n4543100 0.1 10192099
15:00+9n5645100 0.1 10181919
18:00+7n455221 0.0 10181610
21:00+2n23752 0.0 101939
21 may, sat
sat2100:00−1n22845 0.0 101814
03:00−2n11819 0.0 101810
06:00+2nnw1264100 0.0 1017140
09:00+6nnw2253100 0.0 1015774
12:00+9nnw2346100 0.1 10141644
15:00+10nne344797 0.2 10121745
18:00+9nne445496 0.1 10121510
21:00+3nne22705 0.1 101221
22 may, sun
sun2200:000nne36765 0.0 101292
03:00−1nne25815 0.0 101179
06:00+2nne38625 0.0 1011271
09:00+7nne57435 0.0 10091647
12:00+9n573861 0.0 10082054
15:00+10n673899 0.0 10072205
18:00+10n574687 0.0 10061823
21:00+5n35659 0.0 100796
23 may, mon
mon2300:00+2nnw41178100 0.0 1006269
03:00+2nnw51273100 0.0 1006435
06:00+3nnw51272100 0.0 1005612
09:00+5nnw71051100 0.0 10041030
12:00+7nnw71139100 0.0 10041315
15:00+9nnw61342100 0.0 10041544
18:00+7n61347100 0.0 10041537
21:00+5nnw61157100 0.0 10051034
24 may, tue
tue2400:00+4nnw51163100 0.0 10051136
03:00+2nnw61170100 0.0 10061001
06:00+1nnw5108998 0.1 1008852
09:00+3nnw6875100 0.3 10091081
12:00+5n5868100 0.1 10101252
15:00+6n5766100 0.1 10121396
18:00+6n3672100 0.1 1013943
21:00+3n248860 0.1 1015116